User: anonymous   Login
Location: Unspecified
(0.0000°N, 0.0000°E)
Time: 10:32:17
(UTC+00:00)
Language:

KANOPUS-V-IK - Orbit

View from above orbital plane
View from above orbital plane
View from above satellite
View from above satellite

Ground track
Ground track

The orbit data is extracted from the following two-line orbital elements,

1 42825U 17042A   18232.15928789  .00000134  00000-0  96324-5 0  9997
2 42825  97.4191 139.9774 0001920  84.9599 275.1855 15.18887840 61011
Epoch (UTC): 20 August 2018 03:49:22
Eccentricity: 0.0001920
inclination: 97.4191°
perigee height: 508 km
apogee height: 510 km
right ascension of ascending node: 139.9774°
argument of perigee: 84.9599°
revolutions per day: 15.18887840
mean anomaly at epoch: 275.1855°
orbit number at epoch: 6101

The dashed part of the orbit path shows where the satellite is in the earth's shadow,  

DLR